DW5450 Weather Reports


time (UTC)temp
C
wind
direction
speed
KPH
gust
KPH
rain 1hr
cm
rain 24hr
cm
rain mn
cm
humidity
%
barometer
mb
20260503211528 28 165 6.4 16.1 0.00 0.00 0.00 47 1011.4
20260503210028 29 132 6.4 19.3 0.00 0.00 0.00 47 1011.6
20260503204530 29 182 3.2 17.7 0.00 0.00 0.00 43 1011.8
20260503203027 29 143 8.0 17.7 0.00 0.00 0.00 40 1011.9
20260503201527 30 178 9.7 19.3 0.00 0.00 0.00 41 1012.1
20260503200026 30 150 6.4 20.9 0.00 0.00 0.00 43 1012.3
20260503194524 30 176 4.8 19.3 0.00 0.00 0.00 40 1012.2
20260503193036 30 167 4.8 14.5 0.00 0.00 0.00 41 1012.5
20260503191520 30 94 6.4 17.7 0.00 0.00 0.00 42 1012.8
20260503190017 29 177 4.8 17.7 0.00 0.00 0.00 47 1012.8
20260503184523 28 146 6.4 17.7 0.00 0.00 0.00 45 1013.1
20260503183016 28 157 8.0 19.3 0.00 0.00 0.00 50 1013.1
20260503181517 28 182 4.8 19.3 0.00 0.00 0.00 56 1013.1
20260503180019 28 182 3.2 17.7 0.00 0.00 0.00 61 1013.0
20260503174515 28 111 3.2 14.5 0.00 0.00 0.00 67 1013.1
20260503173022 28 169 4.8 17.7 0.00 0.00 0.00 69 1013.1
20260503171521 28 162 8.0 16.1 0.00 0.00 0.00 70 1013.1
20260503081602 18 22 0.0 3.2 0.00 0.00 0.00 66 1011.1
20260503080106 18 23 0.0 1.6 0.00 0.00 0.00 66 1011.3
20260503071604 18 36 0.0 3.2 0.00 0.00 0.00 67 1011.9
20260503070110 18 36 0.0 0.0 0.00 0.00 0.00 67 1012.0
20260503060112 20 36 0.0 0.0 0.00 0.00 0.00 62 1012.0
20260503054547 20 36 0.0 1.6 0.00 0.00 0.00 62 1011.9
20260503053049 20 36 0.0 3.2 0.00 0.00 0.00 61 1011.8
20260503051549 20 98 0.0 3.2 0.00 0.00 0.00 60 1011.5
20260503050046 20 141 0.0 1.6 0.00 0.00 0.00 60 1011.4
20260503044546 21 142 0.0 0.0 0.00 0.00 0.00 60 1011.5
20260503043046 21 142 1.6 3.2 0.00 0.00 0.00 60 1011.3
20260503041545 22 142 0.0 0.0 0.00 0.00 0.00 56 1011.0
20260503040048 22 142 0.0 1.6 0.00 0.00 0.00 56 1010.8
20260503034551 22 138 0.0 3.2 0.00 0.00 0.00 56 1010.7
20260503033049 22 138 0.0 1.6 0.00 0.00 0.00 55 1010.6
20260503031543 22 138 0.0 0.0 0.00 0.00 0.00 54 1010.3
20260503030042 23 138 0.0 0.0 0.00 0.00 0.00 53 1010.4
20260503024542 23 138 0.0 0.0 0.00 0.00 0.00 53 1010.3
20260503023043 23 138 0.0 1.6 0.00 0.00 0.00 51 1010.0
20260503021541 24 138 0.0 4.8 0.00 0.00 0.00 52 1009.9
20260503020040 25 134 0.0 4.8 0.00 0.00 0.00 49 1009.8
20260503014542 25 134 1.6 6.4 0.00 0.00 0.00 47 1009.5
20260503013049 26 107 1.6 4.8 0.00 0.00 0.00 45 1009.5
20260503011543 27 119 1.6 8.0 0.00 0.00 0.00 41 1009.3
20260503010054 27 163 3.2 11.3 0.00 0.00 0.00 37 1009.2
20260503004538 27 120 3.2 11.3 0.00 0.00 0.00 36 1009.3
20260503003037 27 132 3.2 12.9 0.00 0.00 0.00 36 1009.1
20260503001536 27 149 4.8 12.9 0.00 0.00 0.00 37 1009.1
20260503000035 28 153 4.8 12.9 0.00 0.00 0.00 41 1009.1
20260502234538 28 144 4.8 14.5 0.00 0.00 0.00 42 1009.1
20260502233031 28 196 6.4 16.1 0.00 0.00 0.00 44 1009.1
20260502231531 28 173 3.2 14.5 0.00 0.00 0.00 48 1009.0
20260502230031 28 148 6.4 14.5 0.00 0.00 0.00 51 1009.3
20260502224529 28 170 4.8 14.5 0.00 0.00 0.00 52 1009.3
20260502223028 28 132 8.0 16.1 0.00 0.00 0.00 54 1009.5
20260502221527 28 123 6.4 17.7 0.00 0.00 0.00 55 1009.5
20260502220027 28 118 4.8 17.7 0.00 0.00 0.00 56 1009.7
20260502214535 28 165 4.8 14.5 0.00 0.00 0.00 57 1009.8
20260502213028 28 138 8.0 17.7 0.00 0.00 0.00 58 1010.1